(459731) = 2013 PS73

Discovered at Mount Lemmon on 2013-06-09 by Mt. Lemmon Survey.

Orbit

Orbit type: Main Belt

Note: WebGL enabled browser required.

epoch2023-09-13.0
epoch JD2460200.5
perihelion date2022-03-27.77680
perihelion JD2459666.27680
argument of perihelion (°)30.42470
ascending node (°)279.87314
inclination (°)12.57639
eccentricity0.1499568
perihelion distance (AU)2.3028096
Tisserand w.r.t. Jupiter3.3
ΔV w.r.t. Earth (km/sec)10.3
semimajor axis (AU)2.7090501
mean anomaly (°)118.08672
mean daily motion (°/day)0.22104380
aphelion distance (AU)3.115
period (years)4.46
P-vector [x]0.63479063
P-vector [y]-0.74552934
P-vector [z]-0.20304399
Q-vector [x]0.74230963
Q-vector [y]0.51545135
Q-vector [z]0.42811951
absolute magnitude16.5
phase slope0.15
uncertainty0
referenceMPEC 2023-Y46
observations used197
oppositions11
arc length (days)7056
first opposition used2004
last opposition used2023
residual rms (arc-secs)0.64
perturbers coarse indicatorM-v
perturbers precise indicator003Ek
first observation date used2004-08-20.0
last observation date used2023-12-15.0
computer nameMPCLINUX
JD of orbit computation2457406.287881
perihelion JD uncertainty (days)1.6463E-04
argument of perihelion uncertainty (°)6.0252E-05
ascending node uncertainty (°)4.9318E-05
inclination uncertainty (°)6.6202E-06
eccentricity uncertainty 1.2166E-07
perihelion distance uncertainty (AU)3.4423E-07
Minimum Orbit Intersection Distances (in AU)
for orbit epoch: 2460200.5, reference: E2023-Y46
Mercury1.8742
Venus1.58573
Earth1.29595
Mars0.90737
Jupiter2.12645
Saturn6.00108
Uranus15.444
Neptune27.0567

Observations

200 total observations over interval: 2004 08 20.30034 – 2023 12 15.462095
These data are available for download (format description).

Date (UT) J2000 RA J2000 Dec Magn Location Ref
2004 08 20.30034 22 30 56.22 +10 11 43.0 19.5 R 703 – Catalina Sky Survey MPS 483748
2004 08 20.30882 22 30 55.65 +10 11 43.6 18.2 R 703 – Catalina Sky Survey MPS 483749
2004 08 20.31733 22 30 55.21 +10 11 45.0 19.1 R 703 – Catalina Sky Survey MPS 483749
2004 08 20.32586 22 30 54.81 +10 11 43.8 19.3 R 703 – Catalina Sky Survey MPS 483749
2005 12 02.42429 06 22 29.03 +27 35 06.4 21.2 V 691 – Steward Observatory, Kitt Peak-Spacewatch MPS 483749
2005 12 02.44159 06 22 28.09 +27 35 04.1 21.4 V 691 – Steward Observatory, Kitt Peak-Spacewatch MPS 483749
2005 12 02.45892 06 22 27.12 +27 35 01.8 21.6 V 691 – Steward Observatory, Kitt Peak-Spacewatch MPS 483749
2009 11 19.26474 02 47 15.50 +31 34 01.6 20.8 V 703 – Catalina Sky Survey MPS 483749
2009 11 19.27319 02 47 14.96 +31 33 57.9 19.5 V 703 – Catalina Sky Survey MPS 483749
2009 11 19.28162 02 47 14.42 +31 33 53.6 20.4 V 703 – Catalina Sky Survey MPS 483749
2009 11 19.28988 02 47 14.06 +31 33 49.8 20.1 V 703 – Catalina Sky Survey MPS 483749
2011 01 28.36276 08 40 28.95 +08 56 22.7 20.7 V G96 – Mt. Lemmon Survey MPS 483749
2011 01 28.37138 08 40 28.41 +08 56 23.2 20.9 V G96 – Mt. Lemmon Survey MPS 483749
2011 01 28.38015 08 40 27.94 +08 56 23.1 20.6 V G96 – Mt. Lemmon Survey MPS 483749
2011 01 28.38889 08 40 27.40 +08 56 23.9 20.8 V G96 – Mt. Lemmon Survey MPS 483749
2013 06 09.42088 23 09 54.50 +05 07 24.0 20.9 V G96 – Mt. Lemmon Survey MPS 478866
2013 06 09.42621 23 09 54.79 +05 07 27.8 20.6 V G96 – Mt. Lemmon Survey MPS 478866
2013 06 09.43153 23 09 55.11 +05 07 32.0 20.7 V G96 – Mt. Lemmon Survey MPS 478866
2013 06 09.43679 23 09 55.47 +05 07 36.1 20.5 V G96 – Mt. Lemmon Survey MPS 478866
2013 08 06.36456 23 31 42.88 +15 25 59.1 20.1 r I41 – Palomar Mountain--ZTF MPS 476506
2013 08 06.41926 23 31 41.71 +15 26 21.0 20.2 r I41 – Palomar Mountain--ZTF MPS 476506
2013 08 06.45732 23 31 40.83 +15 26 35.9 20.4 r I41 – Palomar Mountain--ZTF MPS 476506
2013 08 07.35871 23 31 21.50 +15 32 20.3 20.3 r I41 – Palomar Mountain--ZTF MPS 476506
2013 08 07.42584 23 31 19.86 +15 32 45.5 20.3 r I41 – Palomar Mountain--ZTF MPS 476506
2013 08 08.36579 23 30 58.13 +15 38 31.8 20.1 r I41 – Palomar Mountain--ZTF MPS 476506
2013 08 08.42057 23 30 56.71 +15 38 51.6 20.0 r I41 – Palomar Mountain--ZTF MPS 476506
2013 08 08.45723 23 30 55.75 +15 39 04.8 20.1 r I41 – Palomar Mountain--ZTF MPS 476506
2013 09 13.19783 23 04 30.28 +16 21 47.0 19.1 r I41 – Palomar Mountain--ZTF MPS 476506
2013 09 13.23601 23 04 28.13 +16 21 39.4 19.8 r I41 – Palomar Mountain--ZTF MPS 476506
2013 09 14.13554 23 03 40.82 +16 18 14.5 19.4 r I41 – Palomar Mountain--ZTF MPS 476506
2013 09 14.19582 23 03 37.56 +16 18 00.6 19.5 r I41 – Palomar Mountain--ZTF MPS 476506
2013 09 14.23255 23 03 35.55 +16 17 52.3 19.4 r I41 – Palomar Mountain--ZTF MPS 476506
2013 09 26.26121 22 53 52.12 +15 16 44.0 19.5 V 703 – Catalina Sky Survey MPS 477826
2013 09 26.26768 22 53 51.78 +15 16 41.4 19.4 V 703 – Catalina Sky Survey MPS 477826
2013 09 26.27427 22 53 51.53 +15 16 38.7 19.9 V 703 – Catalina Sky Survey MPS 477826
2013 09 26.28083 22 53 51.26 +15 16 37.1 19.5 V 703 – Catalina Sky Survey MPS 477826
2013 10 24.13119 22 43 34.74 +12 13 52.1 20.4 r I41 – Palomar Mountain--ZTF MPS 483749
2013 10 24.15704 22 43 34.71 +12 13 42.8 20.4 r I41 – Palomar Mountain--ZTF MPS 483749
2013 10 25.10533 22 43 36.64 +12 08 04.9 20.2 r I41 – Palomar Mountain--ZTF MPS 483749
2013 10 25.13270 22 43 36.66 +12 07 55.2 20.0 r I41 – Palomar Mountain--ZTF MPS 483749
2013 10 25.17385 22 43 36.71 +12 07 40.8 20.1 r I41 – Palomar Mountain--ZTF MPS 483749
2013 10 27.28481 22 43 46.29 +11 55 30.6 20.1 V G96 – Mt. Lemmon Survey MPS 483749
2013 10 27.29131 22 43 46.33 +11 55 28.4 20.3 V G96 – Mt. Lemmon Survey MPS 483749
2013 10 27.29781 22 43 46.37 +11 55 26.4 20.1 V G96 – Mt. Lemmon Survey MPS 483749
2013 10 27.30433 22 43 46.41 +11 55 24.0 20.2 V G96 – Mt. Lemmon Survey MPS 483749
2014 01 21.22509 00 05 58.977 +12 40 14.31 21.4 w F51 – Pan-STARRS 1, Haleakala MPS 497184
2014 01 21.22903 00 05 59.321 +12 40 15.57 21.4 w F51 – Pan-STARRS 1, Haleakala MPS 497184
2014 01 21.23302 00 05 59.675 +12 40 17.05 21.6 w F51 – Pan-STARRS 1, Haleakala MPS 497184
2014 01 21.23697 00 06 00.020 +12 40 18.38 21.6 w F51 – Pan-STARRS 1, Haleakala MPS 497184
2015 12 13.63926 11 19 58.996 -07 21 08.43 22.4 w F51 – Pan-STARRS 1, Haleakala MPS 659865
2015 12 13.64441 11 19 59.146 -07 21 11.22 21.9 w F51 – Pan-STARRS 1, Haleakala MPS 659865
2015 12 13.64957 11 19 59.307 -07 21 13.85 22.1 w F51 – Pan-STARRS 1, Haleakala MPS 659865
2016 01 09.59152 11 28 59.765 -10 47 20.14 22.0 w F51 – Pan-STARRS 1, Haleakala MPS 668518
2016 01 09.60235 11 28 59.791 -10 47 24.33 21.7 w F51 – Pan-STARRS 1, Haleakala MPS 668518
2016 01 09.61293 11 28 59.811 -10 47 28.55 21.6 w F51 – Pan-STARRS 1, Haleakala MPS 668518
2016 01 09.62354 11 28 59.838 -10 47 32.82 21.7 w F51 – Pan-STARRS 1, Haleakala MPS 668518
2016 01 18.57675 11 28 46.216 -11 40 42.48 21.3 w F51 – Pan-STARRS 1, Haleakala MPS 671898
2016 01 18.58926 11 28 46.102 -11 40 46.42 21.4 w F51 – Pan-STARRS 1, Haleakala MPS 671898
2016 01 18.60169 11 28 45.977 -11 40 50.51 21.3 w F51 – Pan-STARRS 1, Haleakala MPS 671898
2016 03 01.43415 11 04 40.216 -12 52 37.45 20.7 r F51 – Pan-STARRS 1, Haleakala MPS 690134
2016 03 01.44487 11 04 39.616 -12 52 35.73 20.7 r F51 – Pan-STARRS 1, Haleakala MPS 690134
2016 03 01.45529 11 04 39.065 -12 52 34.38 20.5 r F51 – Pan-STARRS 1, Haleakala MPS 690134
2016 03 01.46569 11 04 38.494 -12 52 32.81 20.4 r F51 – Pan-STARRS 1, Haleakala MPS 690134
2016 03 07.38499 10 59 23.376 -12 34 38.84 20.6 w F51 – Pan-STARRS 1, Haleakala MPS 692594
2016 03 07.40815 10 59 22.093 -12 34 33.92 20.7 w F51 – Pan-STARRS 1, Haleakala MPS 692594
2016 03 07.41973 10 59 21.453 -12 34 31.46 20.7 w F51 – Pan-STARRS 1, Haleakala MPS 692594
2016 03 28.32902 10 42 10.965 -10 52 00.79 20.8 r F51 – Pan-STARRS 1, Haleakala MPS 698683
2016 03 28.34065 10 42 10.470 -10 51 56.59 20.9 r F51 – Pan-STARRS 1, Haleakala MPS 698683
2016 03 28.35223 10 42 09.971 -10 51 52.76 21.0 r F51 – Pan-STARRS 1, Haleakala MPS 698683
2016 03 28.36380 10 42 09.452 -10 51 49.05 21.2 r F51 – Pan-STARRS 1, Haleakala MPS 698683
2018 11 05.40073 03 42 49.832 +33 53 30.97 20.3 w F52 – Pan-STARRS 2, Haleakala MPS 937012
2018 11 05.41278 03 42 49.094 +33 53 27.91 20.2 w F52 – Pan-STARRS 2, Haleakala MPS 937012
2018 11 05.42488 03 42 48.355 +33 53 24.82 20.1 w F52 – Pan-STARRS 2, Haleakala MPS 937012
2018 11 05.43720 03 42 47.609 +33 53 21.82 20.2 w F52 – Pan-STARRS 2, Haleakala MPS 937012
2018 11 07.34076 03 40 54.76 +33 44 53.8 20.7 G G96 – Mt. Lemmon Survey MPS 937012
2018 11 07.34666 03 40 54.43 +33 44 52.3 21.0 G G96 – Mt. Lemmon Survey MPS 937012
2018 11 07.35257 03 40 54.04 +33 44 50.4 20.8 G G96 – Mt. Lemmon Survey MPS 937012
2018 11 07.35848 03 40 53.68 +33 44 48.6 20.6 G G96 – Mt. Lemmon Survey MPS 937012
2018 11 28.28054 03 19 49.62 +31 30 29.6 20.1 G G96 – Mt. Lemmon Survey MPS 966858
2018 11 28.28574 03 19 49.35 +31 30 27.5 20.2 G G96 – Mt. Lemmon Survey MPS 966858
2018 11 28.29095 03 19 49.04 +31 30 25.0 20.3 G G96 – Mt. Lemmon Survey MPS 966858
2018 11 28.29614 03 19 48.74 +31 30 22.4 20.1 G G96 – Mt. Lemmon Survey MPS 966858
2018 12 10.13104 03 10 14.59 +29 54 38.6 20.3 G G96 – Mt. Lemmon Survey MPS 966858
2018 12 10.13661 03 10 14.36 +29 54 36.1 20.5 G G96 – Mt. Lemmon Survey MPS 966858
2018 12 10.14219 03 10 14.12 +29 54 33.5 20.1 G G96 – Mt. Lemmon Survey MPS 966858
2018 12 10.14777 03 10 13.88 +29 54 30.7 20.6 G G96 – Mt. Lemmon Survey MPS 966858
2019 12 28.50340 09 27 31.384 +06 22 56.07 21.7 w F51 – Pan-STARRS 1, Haleakala MPS 1113686
2019 12 28.51458 09 27 31.081 +06 22 54.15 21.5 w F51 – Pan-STARRS 1, Haleakala MPS 1113686
2019 12 28.52579 09 27 30.765 +06 22 52.07 21.8 w F51 – Pan-STARRS 1, Haleakala MPS 1113686
2020 01 19.46948 09 13 11.684 +05 49 32.67 21.0 w F52 – Pan-STARRS 2, Haleakala MPS 1143584
2020 01 19.48093 09 13 11.106 +05 49 32.52 20.9 w F52 – Pan-STARRS 2, Haleakala MPS 1143584
2020 01 19.49240 09 13 10.504 +05 49 32.41 20.9 w F52 – Pan-STARRS 2, Haleakala MPS 1143584
2020 01 19.50388 09 13 09.900 +05 49 32.21 21.0 w F52 – Pan-STARRS 2, Haleakala MPS 1143584
